EHI
0 0 0 0 0 0 0 0 0 0 0 0 0 0 0 0 0 0 0 0 0 0 0 0 0 0 0 0 0 0 0 0 0 0 0 0 0 0
0 0 0 0 0 0 0 0 0 0 0 0 0 0 0 0 0 0 0 0 0 0 0 0 0 0 0 0 0 0 0 0 0 0 0 0 0 0
0 0 0 0 0 0 0 0 0 0 0 0 0 0 0 0 0 0 0 0 0 0 0 0 0 0 0 0 0 0 0 0 0 0 0 0 0 0
0 0 0 0 0 0 0 0 0 0 0 0 0 0 0 0 0 0 0 0 0 0 0 0 0 0 0 0 0 0 0 0 0 0 0 0 0 0
0 0 0 0 0 0 0 0 0 0 0 0 0 0 0 0 0 0 0 0 0 0 0 0 0 0 0 0 0 0 0 0 0 0 0 0 0 0
0 0 0 0 0 0 0 0 0 0 0 0 0 0 0 0 0 0 0 0 0 0 0 0 0 0 0 0 0 0 0 0 0 0 0 0 0 0
0 0 0 0 0 0 0 0 0 0 0 0 0 0 0 0 0 0 0 0 0 0 0 0 0 0 0 0 0 0 0 0 0 0 0 0 0 0
0 0 0 0 0 0 0 0 0 0 0 0 0 0 0 0 0 0 0 0 0 0 0 0 0 0 0 0 0 0 0 0 0 0 0 0 0 0
0 0 0 0 0 0 0 0 0 0 0 0 0 0 0 0 0 0 0 0 0 0 0 0 0 0 0 0 0 0 0 0 0 0 0 0 0 0
0 0 0 0 0 0 0 0 0 0 0 0 0 0 0 0 0 0 0 0 0 0 0 0 0 0 0 0 0 0 0 0 0 0 0 0 0 0
0 0 0 0 0 0 0 0 0 0 0 0 0 0 0 0 0 0 0 0 0 0 0 0 0 0 0 0 0 0 0 0 0 0 0 0 0 0
0 0 0 0 0 0 0 0 0 0 0 0 0 0 0 0 0 0 0 0 0 0 0 0 0 0 0 0 0 0 0 0 0 0 0 0 0 0
0 0 0 0 0 0 0 0 0 0 0 0 0 0 0 0 0 0 0 0 0 0 0 0 0 0 0 0 0 0 0 0 0 0 0 0 0 0
0 0 0 0 0 0 0 0 0 0 0 0 0 0 0 0 0 0 0 0 0 0 0 0 0 0 0 0 0 0 0 0 0 0 0 0 0 0
0 0 0 0 0 0 0 0 0 0 0 0 0 0 0 0 0 0 0 0 0 0 0 0 0 0 0 0 0 0 0 0 0 0 0 0 0 0
0 0 0 0 0 0 0 0 0 0 0 0 0 0 0 0 0 0 0 0 0 0 0 0 0 0 0 0 0 0 0 0 0 0 0 0 0 0
0 0 0 0 0 0 0 0 0 0 0 0 0 0 0 0 0 0 0 0 0 0 0 0 0 0 0 0 0 0 0 0 0 0 0 0 0 0
0 0 0 0 0 0 0 0 0 0 0 0 0 0 0 0 0 0 0 0 0 0 0 0 0 0 0 0 0 0 0 0 0 0 0 0 0 0
0 0 0 0 0 0 0 0 0 0 0 0 0 0 0 0 0 0 0 0 0 0 0 0 0 0 0 0 0 0 0 0 0 0 0 0 0 0
0 0 0 0 0 0 0 0 0 0 0 0 0 0 0 0 0 0 0 0 0 0 0 0 0 0 0 0 0 0 0 0 0 0 0 0 0 0
0 0 0 0 0 0 0 0 0 0 0 0 0 0 0 0 0 0 0 0 0 0 0 0 0 0 0 0 0 0 0 0 0 0 0 0 0 0
0 0 0 0 0 0 0 0 0 0 0 0 0 0 0 0 0 0 0 0 0 0 0 0 0 0 0 0 0 0 0 0 0 0 0 0 0 0
0 0 0 0 0 0 0 0 0 0 0 0 0 0 0 0 0 0 0 0 0 0 0 0 0 0 0 0 0 0 0 0 0 0 0 0 0 0
Wind_Speed
2 2 1 1 1 1 1 1 2 3 4 2 1 1 2 2 4 2 3 7 9 10 11 11 12 13 13 13 14 14 14 14 13 14 14 15 16 17
1 1 1 1 1 1 1 1 2 3 4 2 2 2 3 3 5 4 4 8 9 10 11 11 12 13 13 13 13 12 12 13 14 14 15 16 16 17
1 1 0 0 0 1 1 1 2 2 5 3 2 2 3 4 4 3 4 4 5 10 11 12 12 12 11 11 11 11 12 13 13 14 15 15 16 16
0 1 0 0 0 1 1 2 2 2 3 5 3 3 4 4 4 5 4 4 4 9 11 11 11 11 11 11 11 11 12 12 13 13 13 14 14 15
0 0 1 0 1 1 2 2 2 2 2 4 4 3 3 3 4 4 5 4 5 7 9 10 10 11 11 11 11 11 11 12 13 13 12 13 13 14
1 1 1 1 2 2 2 2 2 2 3 3 4 3 3 3 3 4 5 4 5 5 7 7 9 10 11 11 11 10 11 12 12 12 12 12 12 13
1 1 1 2 2 2 2 2 2 2 3 3 4 3 3 3 3 3 5 5 5 3 3 4 5 4 5 8 9 10 11 12 12 12 12 12 12 12
1 2 2 2 3 4 5 4 3 3 4 4 4 5 5 4 4 4 5 5 5 2 3 6 4 5 4 4 9 11 11 11 12 11 11 11 12 12
1 1 2 2 3 2 3 5 4 6 5 4 5 5 5 4 4 5 5 5 6 4 4 6 4 5 5 6 11 11 11 11 11 11 11 12 11 12
1 1 2 3 3 3 2 2 3 3 4 3 3 4 4 4 4 5 6 6 5 4 3 5 4 5 6 5 9 10 11 11 11 11 12 12 11 11
2 2 2 2 5 5 3 3 3 3 5 6 6 6 7 7 5 3 4 4 5 4 2 3 3 5 5 5 5 9 10 11 12 12 12 12 11 11
2 2 4 4 5 5 3 2 3 4 4 4 4 5 4 5 6 3 3 4 4 4 1 2 3 4 5 3 3 4 5 9 12 12 12 12 11 7
2 2 3 6 6 6 5 2 4 4 3 3 3 3 3 3 3 3 3 3 4 4 3 3 3 3 4 5 5 4 4 4 5 7 9 10 10 7
1 2 3 6 7 6 4 4 6 5 2 3 3 3 3 3 3 4 4 4 5 6 6 5 4 5 5 6 6 5 4 4 4 5 5 7 8 9
1 3 4 6 6 4 5 6 5 2 2 3 3 3 3 4 4 4 4 4 5 5 5 5 5 5 5 6 6 5 6 5 3 4 5 4 4 4
1 2 4 5 4 4 4 4 3 2 3 3 4 4 3 3 3 3 4 4 4 4 4 4 5 5 5 6 6 6 5 5 4 5 5 5 4 3
1 1 2 2 3 3 3 3 3 3 3 3 3 4 4 4 4 4 3 3 4 5 5 4 4 4 6 5 5 5 5 5 5 5 5 5 4 3
1 1 1 2 2 2 3 3 3 3 3 3 3 4 4 4 5 4 3 3 4 5 5 5 5 5 3 3 5 5 4 4 4 5 4 4 5 3
0 1 1 2 2 2 2 3 3 3 3 3 4 4 4 4 4 4 4 4 4 5 5 4 4 4 5 6 4 3 4 4 4 4 4 3 4 4
1 1 2 2 2 2 2 2 3 3 3 3 3 4 4 4 4 5 4 5 5 5 5 4 3 3 4 5 5 5 5 4 4 5 4 3 3 4
1 2 2 2 2 2 2 2 3 3 3 3 3 4 4 4 4 5 5 7 5 4 5 5 5 7 4 3 3 4 3 4 4 4 3 3 2 2
2 2 2 2 2 2 2 2 2 3 3 3 3 3 3 3 4 5 5 5 5 4 5 5 5 4 2 2 4 5 4 4 5 5 4 3 1 1
2 2 2 2 2 2 2 2 3 3 3 3 3 3 4 4 4 4 5 5 4 5 5 5 4 3 2 2 3 3 4 4 3 3 3 5 4 3
Wind_Direction
194 197 212 224 223 248 250 221 228 258 261 239 245 287 298 282 296 282 278 291 292 291 291 293 294 294 293 290 287 284 282 276 274 273 272 271 269 268
191 163 212 243 230 232 240 249 235 241 259 259 244 285 294 299 302 287 278 298 293 292 292 293 295 295 292 288 288 289 287 282 276 271 270 271 269 267
76 117 210 237 228 266 256 248 247 238 258 276 259 276 282 288 298 289 284 277 284 291 292 293 293 293 293 295 294 292 290 289 284 277 273 273 273 268
82 109 337 8 285 267 253 250 249 247 248 271 275 271 270 282 286 289 294 294 283 291 293 291 292 292 292 294 294 295 295 293 289 283 279 278 276 272
182 185 242 208 262 268 269 264 261 265 246 262 277 271 272 287 294 295 292 286 292 296 293 289 290 293 294 294 294 295 295 294 291 286 280 278 277 276
305 261 241 232 242 253 262 259 261 262 263 266 274 281 280 290 290 293 298 294 296 297 293 293 294 294 293 293 292 293 292 291 292 291 285 279 277 276
338 332 316 307 301 287 283 274 269 261 264 273 279 287 287 300 295 297 296 301 292 277 287 290 289 281 283 288 289 289 290 291 293 290 288 286 283 279
326 324 316 317 323 322 312 306 294 278 276 271 277 283 286 285 289 293 298 303 295 289 301 295 287 282 280 271 290 298 298 298 298 295 293 292 288 281
297 307 324 331 338 306 310 322 317 311 293 271 273 277 285 289 290 289 287 288 284 292 293 285 283 279 280 285 298 297 298 298 299 297 296 297 294 287
333 311 300 304 307 313 312 316 310 308 302 289 272 280 287 288 278 279 283 285 281 275 263 276 283 281 290 283 288 295 299 300 302 301 298 297 296 291
347 339 324 304 320 333 325 310 312 314 329 328 319 314 315 314 310 302 301 300 296 291 268 271 286 295 285 276 284 295 301 304 304 302 300 299 296 291
346 342 340 337 337 336 324 311 309 313 323 326 325 323 321 321 327 309 291 288 294 293 288 291 291 312 301 278 278 288 296 300 303 302 302 301 299 290
333 334 332 340 341 342 343 331 318 329 331 320 314 314 316 315 313 304 287 273 275 275 290 300 286 286 279 295 297 288 288 290 294 296 298 299 298 294
312 313 319 338 344 348 348 344 345 349 339 327 322 321 322 317 311 303 289 275 263 266 276 276 272 279 286 289 292 299 299 290 289 292 292 297 295 294
299 318 332 343 350 351 352 352 355 353 339 332 325 321 316 308 308 307 300 290 279 269 268 262 264 273 271 276 283 290 300 298 289 290 294 288 283 283
333 338 350 357 357 352 352 355 353 342 335 323 318 314 314 317 317 315 310 312 304 296 282 270 264 263 269 270 271 280 284 288 301 301 297 287 279 267
349 6 7 356 350 348 350 351 349 347 344 330 322 322 323 323 318 317 311 312 303 302 309 307 291 270 257 261 272 272 279 286 288 297 299 294 288 283
13 352 331 328 322 326 331 335 337 338 335 329 322 317 317 317 316 317 316 310 305 304 306 310 319 321 315 277 240 264 277 280 291 296 294 291 294 295
243 284 292 299 307 313 317 320 322 326 325 320 318 316 314 313 315 316 316 314 310 308 307 307 314 318 316 310 297 257 270 289 298 298 292 282 284 293
240 261 277 285 292 296 301 307 312 319 320 317 314 313 315 315 316 317 315 309 308 312 314 314 310 303 287 285 292 294 285 282 290 296 299 300 292 295
245 257 267 274 277 280 287 292 295 300 305 307 305 307 311 314 314 316 316 315 313 312 314 310 298 305 294 290 293 296 301 296 288 289 306 312 317 337
244 252 262 266 268 267 273 281 287 290 295 296 297 301 303 304 308 312 314 314 313 309 304 303 309 315 314 300 299 305 312 319 321 322 319 314 302 305
239 246 255 260 258 256 257 265 273 279 283 287 290 295 300 302 303 305 307 307 311 314 315 315 319 320 307 296 300 306 313 321 330 350 352 353 359 359